Startseite
Über Mich
AHP4
Galerie
Sehschlangen
Tourenbuch
Bookmarks
Elektronik
Bewertung
Geschichten
[Tagesmessung] [Jahreswerte] [Information]

Messwerte vom 03.04.2022

Die letzten Messwerte von 23:58:45 Uhr:
KategorieMesswert
Temperatur [°C]1
Luftdruck [mBar]1002
Sonneneinstrahlung0
Wind [km/h]2 aus Süd
Niederschlag [l/m²]0
rel.Luftfeucht.94.8%
CO2 [ppm]755

Diagramme
Messwerte vom 03.04.2022
Tagesaggregation
KategorieMinimumMaximumSchnittSumme
Temperatur [°C]-8101.0646
Luftdruck [mBar]100110051002.9896
Sonneneinstrahlung247110.7896
Wind [km/h]18
rF [%]46.994.871.85
Niederschlag [l/m²]0
CO2 [ppm]407776581.6
Einordnung alsFrosttag
Vegetationstag

Messungen an benachbarten Tagen: Zur Jahresaggregation 2022
Tabelle aller Messwerte
UhrzeitTemperatur [°C]Luftdruck [mBar]SonneWind [km/h]RichtungRegen [l/m²]rF [%]CO2 [ppm]
00:01:48 -2 1003 0 0 NO 0 53.5 635
00:04:45 -2 1003 0 1 N 0 53.6 633
00:07:48 -2 1003 0 0 S 0 53.8 638
00:10:47 -2 1003 0 0 NO 0 54.1 638
00:13:46 -2 1003 0 2 N 0 54 633
00:16:48 -2 1003 0 0 NW 0 54.3 638
00:19:45 -2 1003 0 0 N 0 54.3 643
00:22:47 -2 1003 0 1 NW 0 54.4 644
00:25:47 -2 1004 0 0 N 0 55 642
00:28:45 -2 1004 0 1 N 0 55.4 630
00:31:46 -2 1003 0 4 N 0 55.7 629
00:34:47 -2 1004 0 2 NW 0 56 631
00:37:45 -2 1004 0 0 N 0 56.4 641
00:40:47 -2 1004 0 2 NO 0 56.9 650
00:43:45 -2 1004 0 0 NO 0 57 647
00:46:49 -2 1004 0 0 NW 0 56.7 644
00:49:49 -2 1004 0 0 NO 0 56.8 642
00:52:48 -2 1004 0 1 O 0 56.8 638
00:55:48 -2 1004 0 0 N 0 57 629
00:58:46 -2 1004 0 0 O 0 57.3 628
01:01:47 -2 1004 0 0 NO 0 58 635
01:04:47 -2 1003 0 1 W 0 58.3 639
01:07:48 -2 1003 0 1 SO 0 58.3 645
01:10:46 -2 1003 0 0 N 0 58.1 640
01:13:47 -2 1003 0 0 N 0 58.1 637
01:16:47 -3 1003 0 0 SO 0 58.3 645
01:19:50 -3 1004 0 0 SO 0 58.2 642
01:22:45 -3 1004 0 0 O 0 59 635
01:25:48 -3 1004 0 0 N 0 60.3 633
01:28:49 -3 1004 0 0 SO 0 60.7 633
01:31:49 -4 1004 0 0 SO 0 60.8 638
01:34:47 -4 1004 0 0 SO 0 61.6 641
01:37:48 -4 1004 0 0 SO 0 62.3 648
01:40:48 -4 1004 0 0 SO 0 62.8 642
01:43:47 -4 1004 0 0 SO 0 63.9 638
01:46:46 -4 1004 0 0 SO 0 64.1 637
01:49:46 -5 1005 0 0 SO 0 64.7 642
01:52:47 -5 1004 0 0 SO 0 65.1 642
01:55:47 -5 1004 0 0 SO 0 65.6 635
01:58:46 -5 1004 0 0 SO 0 65.9 640
02:01:48 -5 1004 0 0 SO 0 66 642
02:04:48 -5 1004 0 0 SO 0 66.7 644
02:07:49 -5 1003 0 0 NW 0 67.2 644
02:10:48 -5 1003 0 0 NW 0 68.4 639
02:13:50 -5 1003 0 0 NW 0 67.7 644
02:16:48 -5 1004 0 0 NW 0 67.4 644
02:19:49 -5 1004 0 0 NW 0 67.5 639
02:22:49 -5 1004 0 0 NW 0 67.9 636
02:25:48 -5 1003 0 0 NW 0 67.7 634
02:28:49 -5 1003 0 0 NW 0 67.7 636
02:31:49 -5 1003 0 0 NW 0 68.1 642
02:34:46 -5 1003 0 0 NW 0 67.9 638
02:37:48 -6 1003 0 0 NW 0 68.8 638
02:40:49 -6 1004 0 0 NW 0 69.5 638
02:43:51 -5 1004 0 0 NW 0 70 642
02:46:46 -5 1004 0 5 NW 0 70.4 644
02:49:47 -5 1004 0 0 W 0 72.1 641
02:52:48 -5 1004 0 1 W 0 72.6 641
02:55:50 -5 1004 0 0 SO 0 72.6 642
02:58:47 -5 1003 0 0 SO 0 72.6 638
03:01:47 -5 1004 0 0 NW 0 73.1 636
03:04:47 -6 1004 0 0 S 0 73.3 635
03:07:47 -6 1004 0 0 S 0 73.5 633
03:10:50 -6 1003 0 0 W 0 74 627
03:13:45 -6 1003 0 0 W 0 73.7 644
03:16:47 -6 1003 0 0 SO 0 73.6 638
03:19:47 -6 1004 0 0 SO 0 73.8 639
03:22:47 -6 1004 0 0 SO 0 74 641
03:25:48 -6 1003 0 0 S 0 74 645
03:28:45 -6 1003 0 0 S 0 74 638
03:31:50 -6 1004 0 0 S 0 74.5 630
03:34:47 -6 1003 0 0 S 0 74.5 636
03:37:47 -6 1004 0 0 S 0 74.3 644
03:40:46 -6 1003 0 0 S 0 74.2 647
03:43:46 -6 1004 0 0 S 0 74.2 642
03:46:48 -6 1003 0 0 S 0 74.6 644
03:49:46 -6 1003 0 0 S 0 74.7 638
03:52:44 -6 1004 0 0 S 0 74.5 641
03:55:46 -7 1004 0 0 S 0 74.5 642
03:58:48 -7 1003 0 0 S 0 74.4 648
04:01:47 -7 1004 0 0 S 0 74.6 647
04:04:47 -7 1003 0 0 S 0 74.9 630
04:07:47 -7 1003 0 0 S 0 75 630
04:10:46 -7 1003 0 0 S 0 75.2 629
04:13:48 -7 1003 0 0 S 0 75.4 641
04:16:45 -7 1003 0 0 S 0 75.6 641
04:19:46 -7 1004 0 0 S 0 75.7 635
04:22:48 -7 1003 0 0 S 0 75.6 633
04:25:46 -7 1003 0 0 S 0 75.7 635
04:28:46 -7 1003 0 0 S 0 75.4 641
04:31:46 -7 1004 0 0 S 0 75.6 638
04:34:45 -7 1004 0 0 S 0 76.2 641
04:37:45 -7 1003 0 0 S 0 76.4 646
04:40:47 -7 1004 0 0 S 0 76.6 651
04:43:44 -7 1004 0 0 S 0 76.7 653
04:46:46 -7 1003 0 0 S 0 76.7 650
04:49:46 -7 1004 0 0 S 0 76.7 646
04:52:46 -7 1003 0 0 S 0 77.2 647
04:55:47 -7 1003 0 0 S 0 77.3 649
04:58:49 -7 1004 0 0 S 0 77.3 662
05:01:48 -7 1004 0 0 S 0 77.4 664
05:04:46 -7 1003 0 0 S 0 77.3 664
05:07:46 -8 1004 0 0 S 0 77.3 667
05:10:48 -8 1004 0 0 S 0 77.8 664
05:13:45 -8 1004 0 0 S 0 77.9 664
05:16:48 -8 1003 0 0 S 0 78 668
05:19:47 -8 1003 0 0 S 0 78.1 674
05:22:47 -8 1003 0 0 S 0 78.1 660
05:25:48 -8 1003 0 0 S 0 78.6 654
05:28:47 -8 1003 0 0 S 0 79.1 655
05:31:49 -7 1004 0 0 S 0 79.8 654
05:34:48 -7 1003 0 0 S 0 80 662
05:37:47 -7 1003 0 0 S 0 80.3 656
05:40:49 -7 1004 0 0 S 0 80.8 658
05:43:47 -7 1003 0 0 SW 0 81 656
05:46:47 -7 1004 0 0 SW 0 81.1 651
05:49:49 -7 1004 0 0 SW 0 81.2 651
05:52:48 -7 1004 0 0 SW 0 80.7 644
05:55:48 -7 1003 0 0 SW 0 80 653
05:58:49 -7 1004 0 0 SW 0 80.1 654
06:01:50 -7 1004 0 0 SW 0 80.7 656
06:04:48 -7 1003 0 0 SW 0 81 651
06:07:48 -6 1004 0 0 SW 0 81 656
06:10:50 -6 1003 0 0 S 0 81.2 654
06:13:48 -6 1003 0 0 N 0 81.2 653
06:16:49 -6 1004 0 0 NW 0 81 648
06:19:47 -6 1004 0 0 NW 0 80.9 651
06:22:50 -6 1003 0 1 SW 0 80.4 649
06:25:47 -6 1004 3 0 NW 0 80.5 657
06:28:47 -5 1004 5 0 W 0 80.7 654
06:31:48 -5 1004 9 0 SO 0 80 659
06:34:49 -5 1003 13 0 NW 0 79.9 663
06:37:49 -5 1004 18 0 SW 0 80 662
06:40:48 -5 1004 24 0 NW 0 79.9 660
06:43:50 -5 1004 33 0 NW 0 79.9 645
06:46:48 -5 1003 43 0 SO 0 80.2 642
06:49:49 -5 1004 52 2 W 0 80.3 659
06:52:49 -5 1003 62 0 NW 0 80.6 674
06:55:46 -5 1004 72 0 N 0 80.5 673
06:58:47 -5 1004 84 0 W 0 80 681
07:01:45 -5 1004 94 0 O 0 79.8 679
07:04:50 -5 1004 101 0 SW 0 79.6 692
07:07:47 -5 1003 106 0 SW 0 79.6 694
07:10:48 -4 1004 112 0 S 0 79.7 692
07:13:47 -4 1004 121 0 W 0 79.6 700
07:16:49 -4 1003 127 1 SW 0 79.6 706
07:19:46 -4 1005 131 0 S 0 79 698
07:22:47 -4 1004 135 0 SW 0 78.9 690
07:25:48 -4 1004 141 0 O 0 78.8 691
07:28:46 -4 1004 146 0 S 0 78.5 691
07:31:47 -4 1004 149 0 S 0 78.3 701
07:34:47 -4 1004 153 0 SO 0 78 702
07:37:49 -3 1003 158 0 SW 0 78 701
07:40:47 -3 1003 162 0 SO 0 78.1 703
07:43:47 -3 1004 165 0 W 0 78 703
07:46:49 -3 1004 169 0 SW 0 78 693
07:49:48 -3 1004 172 0 W 0 77.7 689
07:52:49 -3 1004 174 0 SW 0 77.7 682
07:55:51 -3 1004 178 1 N 0 78.1 669
07:58:48 -3 1004 180 0 S 0 78.1 668
08:01:47 -3 1003 184 0 O 0 77.9 665
08:04:49 -3 1005 187 1 SW 0 77.8 655
08:07:49 -3 1004 189 4 NW 0 78.1 656
08:10:50 -2 1005 191 1 W 0 77.8 651
08:13:47 -2 1004 194 0 W 0 77.6 654
08:16:48 -2 1005 193 1 SW 0 77.6 644
08:19:49 -2 1005 191 0 S 0 77.3 636
08:22:49 -2 1005 187 2 S 0 76.7 632
08:25:49 -2 1004 186 5 SW 0 76.4 632
08:28:47 -2 1004 187 0 S 0 75.7 630
08:31:48 -2 1005 189 2 S 0 75.6 621
08:34:48 -2 1004 189 0 SO 0 75.7 618
08:37:48 -2 1004 190 2 W 0 75.7 613
08:40:48 -2 1004 190 1 NW 0 75.6 607
08:43:49 -2 1004 190 1 S 0 75.2 606
08:46:50 -2 1005 191 1 SW 0 74.7 606
08:49:47 -2 1005 191 1 S 0 74.8 603
08:52:47 -2 1005 193 8 SW 0 75 597
08:55:46 -2 1004 196 1 NO 0 74.4 588
08:58:49 -1 1005 200 1 SO 0 73.9 586
09:01:48 -1 1004 199 3 S 0 73.4 581
09:04:48 -1 1004 194 0 SO 0 72.6 580
09:07:50 -1 1004 192 4 SW 0 72 572
09:10:47 -1 1004 190 4 W 0 71 571
09:13:46 -1 1004 192 3 W 0 70.6 575
09:16:48 -1 1004 193 2 S 0 71 565
09:19:47 -1 1005 193 2 SW 0 71.1 569
09:22:48 -1 1005 194 4 O 0 70.6 563
09:25:47 -1 1004 195 1 SW 0 70.6 554
09:28:51 0 1004 195 2 NW 0 70.3 556
09:31:48 0 1004 194 1 S 0 70.5 555
09:34:47 0 1004 194 1 SW 0 70.4 547
09:37:48 0 1003 193 0 S 0 69.6 548
09:40:50 0 1005 194 4 S 0 69 547
09:43:48 0 1005 194 0 SO 0 68.7 536
09:46:47 0 1004 194 6 W 0 68.6 536
09:49:48 1 1004 194 0 W 0 68.1 539
09:52:48 1 1004 195 5 SW 0 68.3 533
09:55:50 1 1005 195 7 NW 0 66.8 530
09:58:46 1 1005 195 0 S 0 67.1 533
10:01:48 1 1004 195 2 O 0 66.4 533
10:04:48 1 1004 196 2 S 0 66.2 533
10:07:48 2 1004 196 8 W 0 66.7 526
10:10:49 2 1005 197 4 SW 0 64.9 524
10:13:49 2 1004 197 4 NW 0 64.9 522
10:16:47 2 1004 199 2 W 0 65.1 521
10:19:48 2 1004 200 1 NW 0 65.3 521
10:22:48 2 1004 200 0 S 0 65.2 518
10:25:46 2 1005 201 5 SW 0 65.7 515
10:28:50 3 1005 202 8 SW 0 66.5 507
10:31:49 3 1004 203 5 NW 0 66.5 513
10:34:47 3 1004 204 4 S 0 65.8 512
10:37:48 3 1004 205 4 W 0 64.8 517
10:40:50 3 1004 204 4 NW 0 64.8 506
10:43:48 3 1004 205 5 W 0 65.4 504
10:46:46 4 1004 206 7 W 0 65.6 497
10:49:49 4 1005 209 10 NW 0 65.8 495
10:52:47 4 1004 209 7 NW 0 65.1 492
10:55:49 4 1004 210 5 SW 0 63.7 492
10:58:46 5 1004 215 10 S 0 63 492
11:01:50 5 1004 220 10 NW 0 62.7 492
11:04:49 6 1005 221 15 SW 0 60.4 486
11:07:49 6 1004 223 2 SW 0 60 483
11:10:50 6 1004 225 4 SW 0 58.1 477
11:13:46 7 1003 224 9 N 0 57.1 478
11:16:35 5 1005 221 5 S 0 50.1 480
11:19:48 7 1003 221 8 NW 0 54.4 477
11:22:46 7 1005 222 6 SW 0 54.1 471
11:25:49 7 1004 221 8 W 0 53.6 468
11:28:47 7 1004 219 4 SO 0 54.9 469
11:31:48 6 1004 219 2 W 0 54.4 467
11:34:47 6 1004 219 8 W 0 54.8 468
11:37:48 6 1004 219 2 SW 0 54.6 463
11:40:52 6 1004 223 9 S 0 54.8 464
11:43:46 6 1004 227 3 SW 0 55.4 453
11:46:45 7 1003 227 4 S 0 54.5 454
11:49:46 8 1003 221 13 S 0 54.5 457
11:52:48 8 1003 222 3 NW 0 52.6 463
11:55:48 7 1003 226 15 W 0 50.9 460
11:58:47 7 1004 228 6 SO 0 51.3 459
12:01:48 8 1003 230 3 SW 0 52.4 454
12:04:49 8 1003 229 10 SW 0 51.4 451
12:07:48 8 1003 227 2 SO 0 51.1 450
12:10:47 8 1003 227 5 SW 0 50.2 448
12:13:50 8 1003 224 2 N 0 50.2 451
12:16:48 8 1003 223 3 SW 0 50.4 447
12:19:47 8 1004 226 8 SW 0 50.4 448
12:22:45 7 1004 228 11 W 0 49.4 445
12:25:49 7 1003 227 10 N 0 50.6 442
12:28:48 7 1004 226 4 W 0 49.9 439
12:31:47 8 1003 226 18 W 0 50.6 442
12:34:48 8 1003 227 6 S 0 49.8 439
12:37:49 8 1003 225 4 SW 0 50.2 445
12:40:48 7 1003 223 13 W 0 49.7 443
12:43:48 7 1004 213 4 W 0 50.3 442
12:46:48 7 1003 211 11 SW 0 50.5 439
12:49:50 7 1003 214 6 SW 0 50.5 439
12:52:48 7 1004 216 3 W 0 52.4 439
12:55:49 6 1003 221 11 SW 0 54.3 437
12:58:48 6 1003 220 5 N 0 55 436
13:01:50 6 1003 221 5 SW 0 55.9 431
13:04:47 6 1002 219 2 S 0 56.7 425
13:07:46 6 1004 219 7 W 0 57.1 425
13:10:49 6 1003 217 5 NW 0 57.2 427
13:13:46 6 1004 213 8 W 0 57.8 427
13:16:46 6 1003 220 4 N 0 58 425
13:19:47 6 1003 225 2 SW 0 58.9 422
13:22:49 6 1003 230 6 S 0 59.3 424
13:25:47 6 1003 231 9 SW 0 59.3 424
13:28:45 6 1003 231 5 W 0 59.3 418
13:31:46 7 1003 233 9 W 0 59.1 419
13:34:49 8 1002 230 12 SO 0 56.3 468
13:37:47 8 1003 221 7 O 0 54.8 468
13:40:46 7 1003 219 3 NW 0 54.7 468
13:43:47 7 1002 226 8 W 0 54.9 466
13:46:45 7 1003 229 5 N 0 56.4 456
13:49:47 7 1002 230 3 SW 0 57 451
13:52:47 8 1003 227 8 SW 0 55.9 451
13:55:47 7 1003 228 2 NW 0 54.8 454
13:58:47 8 1002 228 13 W 0 54.6 462
14:01:47 8 1002 229 4 SW 0 54.5 462
14:04:47 9 1003 236 5 SW 0 53.9 454
14:07:33 7 1003 227 2 W 0 46.9 460
14:10:50 10 1002 222 7 NW 0 50.6 453
14:13:49 9 1002 226 6 NW 0 49.1 454
14:16:49 9 1002 231 9 NW 0 49.6 454
14:19:47 9 1002 233 7 SW 0 50 460
14:22:51 9 1002 223 7 SW 0 48.1 463
14:25:50 9 1002 233 10 W 0 48.5 460
14:28:48 9 1002 198 2 W 0 49.3 459
14:31:46 9 1002 213 2 W 0 48.5 456
14:34:48 8 1002 222 4 W 0 50.1 454
14:37:50 8 1002 238 15 NW 0 53 453
14:40:49 8 1002 241 8 W 0 54.4 451
14:43:48 9 1002 242 18 W 0 55.4 451
14:46:48 10 1002 243 6 SW 0 55.1 447
14:49:48 10 1002 236 10 S 0 51.1 442
14:52:48 10 1002 233 4 SW 0 51.1 442
14:55:46 9 1002 236 6 SW 0 51.9 454
14:58:48 9 1002 227 4 SW 0 53.4 454
15:01:48 8 1002 225 8 SW 0 53.8 460
15:04:47 8 1002 223 2 NO 0 54.4 447
15:07:49 8 1002 220 4 SW 0 55.1 446
15:10:49 8 1002 217 3 NW 0 55.5 442
15:13:48 8 1002 213 4 SW 0 55.8 446
15:16:48 7 1002 217 6 SW 0 56.5 446
15:19:47 7 1002 224 14 SW 0 57 451
15:22:51 7 1002 227 6 SW 0 58.1 455
15:25:47 7 1002 226 9 W 0 58.5 454
15:28:48 7 1002 220 10 SW 0 58.7 448
15:31:47 7 1003 216 8 W 0 58.2 442
15:34:46 7 1002 214 5 W 0 58.3 440
15:37:47 7 1002 216 7 S 0 59.2 436
15:40:48 7 1002 222 5 NW 0 59.2 445
15:43:51 7 1002 224 8 SW 0 60 445
15:46:47 7 1002 226 2 SW 0 60.4 442
15:49:48 7 1002 226 6 S 0 60.1 436
15:52:49 7 1002 222 3 W 0 59.9 439
15:55:47 8 1002 215 1 O 0 59.8 445
15:58:47 8 1002 209 5 S 0 58.5 442
16:01:49 7 1002 196 8 SW 0 57.9 442
16:04:47 7 1002 196 9 W 0 58 436
16:07:48 7 1002 212 5 SW 0 59.1 433
16:10:49 7 1002 228 5 NW 0 60.2 436
16:13:50 7 1002 239 1 S 0 60.8 439
16:16:46 7 1002 247 3 SW 0 61.7 433
16:19:47 8 1002 247 2 W 0 62.4 436
16:22:32 6 1002 247 1 SW 0 52.1 433
16:25:48 9 1002 247 0 SW 0 56.8 428
16:28:47 10 1002 247 5 SW 0 56.5 431
16:31:49 10 1002 247 9 SW 0 53.8 424
16:34:48 10 1002 240 8 SW 0 53.4 422
16:37:50 10 1002 230 8 W 0 52.9 418
16:40:48 10 1002 246 3 W 0 52.8 413
16:43:48 10 1002 234 11 NW 0 52.6 410
16:46:47 10 1002 232 2 O 0 51.6 407
16:49:50 9 1002 244 9 SW 0 51.9 407
16:52:47 9 1002 242 7 N 0 51.8 407
16:55:49 9 1003 200 5 W 0 52.3 410
16:58:49 8 1002 154 3 SW 0 52.7 419
17:01:50 8 1002 138 8 S 0 53.8 410
17:04:49 7 1002 156 16 SW 0 59.8 413
17:07:46 6 1002 170 12 W 0 64.1 413
17:10:50 5 1002 181 5 W 0 70.3 424
17:13:46 5 1002 185 9 W 0 70.5 422
17:16:48 5 1002 181 6 SW 0 72.7 422
17:19:47 5 1002 194 3 NW 0 75.1 427
17:22:46 5 1002 211 1 NO 0 76.5 424
17:25:47 5 1002 218 2 W 0 77.7 422
17:28:49 5 1002 224 0 S 0 78.2 422
17:31:49 5 1002 227 2 S 0 77.8 421
17:34:47 5 1002 234 1 SW 0 77 421
17:37:49 6 1002 234 2 W 0 76.6 421
17:40:46 6 1002 233 1 W 0 76.5 422
17:43:47 6 1002 234 6 SW 0 75.9 422
17:46:49 6 1002 229 1 NW 0 74.9 427
17:49:48 5 1002 234 2 NW 0 75.3 431
17:52:47 6 1002 247 8 S 0 75.8 439
17:55:48 6 1002 240 5 SW 0 76 436
17:58:47 6 1002 246 6 W 0 74.6 439
18:01:49 6 1002 238 3 W 0 74 442
18:04:47 6 1002 221 1 0 73.4 447
18:07:48 5 1002 216 5 SW 0 74.8 454
18:10:48 5 1002 221 3 W 0 75.7 465
18:13:49 5 1002 202 0 NW 0 77.1 475
18:16:47 5 1002 188 0 S 0 78.7 477
18:19:48 5 1002 174 2 SW 0 78.6 480
18:22:48 5 1002 167 2 W 0 79.4 492
18:25:46 4 1002 173 1 S 0 79.6 501
18:28:47 4 1002 181 5 S 0 81 507
18:31:48 4 1002 176 1 S 0 82.1 515
18:34:46 4 1002 173 3 S 0 82.3 515
18:37:47 4 1002 169 2 S 0 83.2 527
18:40:48 4 1002 204 2 SW 0 84.4 533
18:43:48 4 1002 210 1 S 0 85.6 538
18:46:51 4 1002 209 2 W 0 86.2 544
18:49:47 4 1002 211 1 SW 0 86.6 550
18:52:48 4 1002 210 1 SW 0 86.8 550
18:55:46 4 1002 204 2 S 0 86.7 556
18:58:48 4 1002 197 2 SO 0 87.1 563
19:01:48 4 1002 198 0 S 0 87.6 570
19:04:49 4 1003 196 0 SO 0 87.8 580
19:07:48 4 1002 188 2 S 0 87.4 588
19:10:49 4 1002 175 0 SW 0 86.9 589
19:13:49 4 1002 150 1 SO 0 86.4 586
19:16:49 4 1002 127 4 S 0 85.2 592
19:19:50 4 1002 125 3 SW 0 85.2 597
19:22:49 4 1003 132 6 SW 0 85.2 604
19:25:48 4 1002 142 6 W 0 85.2 606
19:28:48 4 1002 161 3 NW 0 85.1 621
19:31:49 4 1002 161 2 S 0 85.1 622
19:34:50 4 1002 154 2 SW 0 84.9 620
19:37:48 4 1002 151 2 W 0 84.9 622
19:40:49 3 1002 148 2 SW 0 84.8 627
19:43:48 3 1002 139 3 S 0 85.1 632
19:46:50 3 1002 125 0 SO 0 86.4 636
19:49:48 3 1002 110 2 SW 0 86.5 635
19:52:48 3 1002 94 2 SO 0 86.7 642
19:55:47 3 1002 75 1 SO 0 87.4 644
19:58:48 3 1002 67 0 O 0 87.8 638
20:01:49 3 1002 59 0 SW 0 88.8 621
20:04:52 2 1002 45 1 SO 0 89.4 618
20:07:51 2 1002 33 2 SO 0 89.8 613
20:10:51 2 1002 23 1 SW 0 91.2 615
20:13:49 2 1002 16 2 SW 0 91.4 618
20:16:49 2 1002 10 0 S 0 91.7 627
20:19:48 2 1002 6 0 S 0 92.1 627
20:22:46 2 1002 3 1 S 0 92.4 635
20:25:47 2 1002 0 2 S 0 92.5 638
20:28:47 2 1002 0 1 SW 0 92.5 641
20:31:49 2 1002 0 1 SW 0 92.5 653
20:34:46 2 1002 0 2 SW 0 92.5 653
20:37:45 2 1002 0 2 S 0 92.6 656
20:40:47 2 1002 0 1 SO 0 92.3 653
20:43:48 2 1002 0 0 S 0 92.3 656
20:46:48 2 1003 0 0 SO 0 92.4 656
20:49:47 2 1002 0 2 SW 0 92.6 663
20:52:45 2 1002 0 1 W 0 93 668
20:55:45 2 1002 0 6 S 0 93.3 674
20:58:49 2 1002 0 4 SO 0 93.5 667
21:01:45 2 1002 0 3 SW 0 93.5 677
21:04:46 2 1002 0 3 SW 0 93.3 682
21:07:48 2 1002 0 2 N 0 92.8 679
21:10:49 2 1002 0 10 SW 0 92.4 682
21:13:46 2 1002 0 2 S 0 92 683
21:16:46 2 1002 0 3 S 0 91.7 689
21:19:47 2 1002 0 2 SO 0 91.7 689
21:22:46 2 1003 0 2 S 0 91.8 688
21:25:48 2 1002 0 7 SW 0 91.9 701
21:28:51 2 1002 0 2 SW 0 92.1 706
21:31:47 1 1002 0 2 S 0 92.4 710
21:34:48 1 1002 0 1 SW 0 92.5 718
21:37:47 1 1002 0 1 W 0 92.6 721
21:40:46 1 1002 0 1 S 0 92.7 723
21:43:47 1 1002 0 1 O 0 93 710
21:46:49 1 1002 0 1 SO 0 93.3 700
21:49:47 1 1002 0 0 NW 0 93.4 697
21:52:46 1 1002 0 2 SW 0 93.6 705
21:55:46 1 1002 0 0 O 0 93.6 712
21:58:44 1 1002 0 0 S 0 93.6 714
22:01:48 1 1002 0 4 SW 0 93.3 708
22:04:47 1 1002 0 3 W 0 93.1 709
22:07:48 1 1002 0 8 SW 0 93.3 715
22:10:47 1 1002 0 2 SW 0 93.3 723
22:13:48 1 1002 0 3 S 0 93.2 729
22:16:46 1 1002 0 1 SW 0 93.3 732
22:19:48 1 1002 0 2 SW 0 93.3 731
22:22:46 1 1002 0 1 S 0 93.3 735
22:25:48 1 1002 0 1 SW 0 93.5 737
22:28:46 1 1002 0 1 W 0 93.9 735
22:31:47 1 1002 0 3 S 0 94.4 735
22:34:47 1 1002 0 2 W 0 94.5 733
22:37:46 1 1002 0 3 S 0 94.3 738
22:40:46 1 1002 0 1 S 0 93.8 740
22:43:45 2 1001 0 0 S 0 93.3 738
22:46:46 2 1002 0 1 S 0 92.9 749
22:49:46 2 1002 0 2 S 0 92.4 761
22:52:48 2 1002 0 1 SW 0 92.1 759
22:55:46 2 1001 0 1 SW 0 91.9 758
22:58:48 2 1002 0 2 SW 0 91.7 759
23:01:47 2 1001 0 1 S 0 91.5 752
23:04:46 2 1002 0 2 S 0 91.5 747
23:07:46 2 1002 0 1 W 0 91.5 747
23:10:46 2 1001 0 2 S 0 91.4 759
23:13:47 2 1002 0 2 W 0 91.8 764
23:16:47 2 1002 0 1 SO 0 92.1 765
23:19:45 2 1001 0 2 S 0 92.1 764
23:22:46 2 1002 0 1 W 0 92.2 768
23:25:47 2 1002 0 0 W 0 92.5 762
23:28:44 1 1001 0 1 O 0 92.7 773
23:31:46 1 1001 0 1 SW 0 93.3 765
23:34:46 1 1002 0 1 W 0 93.6 776
23:37:48 1 1002 0 2 SO 0 93.8 768
23:40:46 1 1002 0 2 S 0 93.9 765
23:43:48 1 1002 0 2 S 0 93.9 759
23:46:47 1 1002 0 1 SW 0 93.8 762
23:49:46 1 1002 0 2 SO 0 93.9 761
23:52:49 1 1003 0 1 S 0 94.6 764
23:55:45 1 1002 0 0 S 0 94.7 758
23:58:45 1 1002 0 2 S 0 94.8 755

Letzte Änderung : 22-Jul-2022
Copyright Jens Köhler, Wolfsburg, Obere Dorfstraße 10d